Location: Newark
(34.1333°N, 7.9667°W)
Time: 01:58:21
(UTC+00:00)

Vanguard 3 - All Passes

Search period start: 04 December 2021 00:00
Search period end: 14 December 2021 00:00
Orbit: 509 x 3260 km, 33.4° (Epoch: 03 December)

Date Brightness Start Highest point End Pass type
(mag) Time Alt. Az. Time Alt. Az. Time Alt. Az.
04 Dec - 01:58:12 10° SSW 02:14:49 44° SE 02:32:10 10° E visible
04 Dec - 04:11:09 10° WSW 04:31:03 75° SSE 04:47:35 10° E visible
04 Dec - 06:28:11 10° W 06:48:01 88° S 07:00:56 10° E visible
04 Dec - 08:46:45 10° W 09:03:13 68° SSW 09:12:35 10° ESE daylight
04 Dec - 11:05:51 10° W 11:15:04 26° SW 11:21:11 10° S daylight
05 Dec - 00:44:55 10° S 00:58:31 30° SE 01:14:02 10° E visible
05 Dec - 02:55:08 10° SW 03:13:36 63° SSE 03:31:38 10° ENE visible
05 Dec - 05:10:20 10° WSW 05:30:41 85° S 05:46:00 10° E visible
05 Dec - 07:28:22 10° W 07:47:14 82° SSW 07:58:43 10° ESE daylight
05 Dec - 09:47:03 10° WNW 10:00:56 45° SW 10:09:08 10° SE daylight
05 Dec - 23:34:06 10° SSE 23:42:57 17° SE 23:53:04 10° E visible
06 Dec - 01:40:22 10° SSW 01:56:36 48° SE 02:14:46 10° ENE visible
06 Dec - 03:53:23 10° WSW 04:13:00 78° SSE 04:30:28 10° E visible
06 Dec - 06:10:10 10° W 06:30:21 87° S 06:44:12 10° E visible
06 Dec - 08:28:35 10° WNW 08:45:50 65° SSW 08:55:59 10° SE daylight
06 Dec - 10:48:11 10° W 10:57:45 24° SW 11:04:16 10° S daylight
07 Dec - 00:27:00 10° SSW 00:40:23 33° SE 00:56:36 10° E visible
07 Dec - 02:37:28 10° SW 02:55:26 67° SSE 03:14:14 10° ENE visible
07 Dec - 04:52:32 10° W 05:12:47 87° S 05:29:02 10° E visible
07 Dec - 07:10:15 10° W 07:29:41 79° SSW 07:42:03 10° ESE daylight
07 Dec - 09:28:59 10° WNW 09:43:31 42° SW 09:52:24 10° SSE daylight
07 Dec - 23:15:41 10° SSE 23:24:58 19° SE 23:36:09 10° E visible
08 Dec - 01:22:46 10° SW 01:38:25 52° SE 01:57:10 10° ENE visible
08 Dec - 03:35:45 10° WSW 03:54:56 81° SSE 04:13:13 10° E visible
08 Dec - 05:52:15 10° W 06:12:36 87° S 06:27:22 10° E visible
08 Dec - 08:10:24 10° WNW 08:28:17 62° SSW 08:39:16 10° SE daylight
08 Dec - 10:30:31 10° W 10:40:17 22° SW 10:47:11 10° S daylight
09 Dec - 00:09:19 10° SSW 00:22:15 36° SE 00:38:57 10° E visible
09 Dec - 02:20:00 10° SW 02:37:16 70° SSE 02:56:42 10° ENE visible
09 Dec - 04:34:50 10° W 04:54:51 88° S 05:11:58 10° E visible
09 Dec - 06:52:10 10° W 07:11:59 77° SSW 07:25:16 10° ESE visible
09 Dec - 09:10:55 10° W 09:25:56 40° SW 09:35:30 10° SSE daylight
09 Dec - 22:57:40 10° S 23:07:01 21° SE 23:18:53 10° E night (unlit)
10 Dec - 01:05:20 10° SW 01:20:16 56° SSE 01:39:24 10° ENE visible
10 Dec - 03:18:16 10° WSW 03:36:52 83° SSE 03:55:52 10° E visible
10 Dec - 05:34:24 10° W 05:54:44 85° S 06:10:26 10° ESE visible
10 Dec - 07:52:15 10° WNW 08:10:34 58° SSW 08:22:25 10° SE daylight
10 Dec - 10:12:55 10° W 10:22:43 21° SW 10:29:54 10° S daylight
10 Dec - 23:51:51 10° SSW 00:04:12 39° SE 00:21:08 10° E visible
11 Dec - 02:02:40 10° WSW 02:19:10 74° SSE 02:39:03 10° E visible
11 Dec - 04:17:16 10° W 04:36:51 88° S 04:54:48 10° E visible
11 Dec - 06:34:10 10° W 06:54:09 74° SSW 07:08:21 10° ESE visible
11 Dec - 08:52:53 10° W 09:08:13 37° SW 09:18:28 10° SSE daylight
11 Dec - 22:39:57 10° S 22:49:07 24° SE 23:01:21 10° E night (unlit)
12 Dec - 00:48:05 10° SW 01:02:12 59° SSE 01:21:30 10° ENE visible
12 Dec - 03:00:55 10° WSW 03:18:49 85° S 03:38:23 10° E visible
12 Dec - 05:16:38 10° W 05:36:47 84° SSW 05:53:22 10° ESE visible
12 Dec - 07:34:10 10° WNW 07:52:44 55° SSW 08:05:26 10° SE daylight
12 Dec - 09:55:25 10° W 10:05:01 19° SW 10:12:23 10° SSW daylight
12 Dec - 23:34:36 10° SSW 23:46:14 42° SE 00:03:10 10° ENE visible
13 Dec - 01:45:29 10° WSW 02:01:07 77° SSE 02:21:16 10° E visible
13 Dec - 03:59:48 10° W 04:18:49 88° S 04:37:30 10° E visible
13 Dec - 06:16:14 10° WNW 06:36:11 70° SSW 06:51:17 10° ESE visible
13 Dec - 08:34:54 10° W 08:50:21 34° SW 09:01:15 10° SSE daylight
13 Dec - 22:22:29 10° S 22:31:17 26° SE 22:43:39 10° E night (unlit)
